sat.trackr.live / text

‹ back to catalog

STARLINK-31408

NORAD 59240 · 2024-049K

PAYLOAD ACTIVE UNKNOWN

§ Identity

Operator
Country
US
Launch date
2024-03-16
Launch site
AFETR
Launch vehicle
Mass (kg)
RCS (m²)

Purposes: comms

External: N2YO · Heavens-Above · Gunter

§ Orbital elements

Epoch: 2026-05-25T04:44:46.348224Z

Period
94.27 min
Inclination
43.0035°
Eccentricity
0.0001138
Mean motion
15.27579326 rev/d
Perigee alt
482.3 km
Apogee alt
483.8 km
Semi-major
6,861.2 km
B*
4.8599e-5
RAAN
71.7485°
Arg perigee
273.0396°
Mean anomaly
87.0325°
Rev number
12,410

§ Raw data

STARLINK-314081 59240U 24049K   26145.19775866  .00001075  00000+0  48599-4 0  99972 59240  43.0035  71.7485 0001138 273.0396  87.0325 15.27579326124102

JSON: /api/v1/satellites/59240 · /tle

For live sub-satellite position, see the globe view (requires WebGL).

§ Visibility from observer

Set your observer location to see the next 7 days of passes ≥ 10°. The values pass through the URL so the page stays shareable.

No JS? Fill the form by hand. The geolocation button needs JavaScript.